Date,TemperatureHighF,TemperatureAvgF,TemperatureLowF,DewpointHighF,DewpointAvgF,DewpointLowF,HumidityHigh,HumidityAvg,HumidityLow,PressureMaxIn,PressureMinIn,WindSpeedMaxMPH,WindSpeedAvgMPH,GustSpeedMaxMPH,PrecipitationSumIn
2014-1-1,38.8,34.9,30.4,35.0,31.6,26.0,93,87,82,30.19,30.04,2,0,0,0.00
2014-1-2,38.2,34.2,28.8,35.0,30.8,25.0,91,87,84,30.04,29.93,2,0,0,0.00
2014-1-3,44.6,39.0,34.4,39.0,35.2,31.0,91,86,78,30.06,30.00,4,0,0,0.00
2014-1-4,45.7,42.7,39.8,40.0,38.2,36.0,89,84,79,30.11,29.70,4,0,0,0.03
2014-1-5,43.5,40.6,34.9,42.0,38.3,32.0,94,91,86,30.08,29.66,4,0,0,0.26
2014-1-6,40.8,37.7,33.2,39.0,35.2,31.0,99,91,84,30.16,30.07,2,0,0,0.00
2014-1-7,48.3,41.1,35.7,42.0,37.5,33.0,92,87,76,30.23,30.06,1,0,0,0.01
2014-1-8,53.7,44.4,36.6,46.0,39.7,34.0,92,84,68,30.25,30.18,5,0,0,0.00
2014-1-9,53.8,43.7,36.0,45.0,38.6,33.0,93,83,65,30.23,29.80,5,0,0,0.02
2014-1-10,46.7,42.8,39.7,41.0,34.1,31.0,80,72,61,30.16,29.85,7,2,0,0.01
2014-1-11,43.4,40.4,36.3,37.0,34.9,32.0,87,81,72,30.17,30.05,7,1,0,0.01
2014-1-12,41.0,37.1,31.6,34.0,29.2,27.0,82,73,61,30.34,30.17,6,1,0,0.00
2014-1-13,39.7,32.8,25.5,35.0,28.3,22.0,90,84,63,30.23,30.00,3,0,0,0.00
2014-1-14,36.4,35.1,33.5,34.0,32.7,31.0,92,91,90,30.01,29.80,2,0,0,0.02
2014-1-15,41.0,36.8,32.2,37.0,33.7,29.0,94,88,80,30.00,29.85,5,1,0,0.08
2014-1-16,41.0,35.4,30.4,34.0,31.2,27.0,89,85,77,29.98,29.79,4,0,0,0.00
2014-1-17,41.4,37.8,35.1,38.0,35.1,32.0,91,90,87,29.89,29.81,2,0,0,0.06
2014-1-18,39.3,36.9,34.9,38.0,35.3,33.0,95,93,91,29.92,29.79,4,0,0,0.00
2014-1-19,47.6,42.1,39.4,44.0,40.0,37.0,95,92,86,29.79,29.66,1,0,0,0.00
2014-1-20,42.4,40.9,34.4,41.0,39.1,33.0,94,93,91,29.79,29.62,3,0,0,0.16
2014-1-21,35.7,32.0,30.1,34.0,30.7,29.0,95,94,94,30.01,29.77,2,0,0,0.05
2014-1-22,32.6,30.2,28.3,31.0,28.5,26.0,94,93,92,30.13,30.00,0,0,0,0.01
2014-1-23,29.0,28.0,26.9,28.0,26.2,25.0,94,93,92,30.20,30.08,0,0,0,0.00
2014-1-24,29.9,29.1,26.6,28.0,27.5,24.0,94,94,91,30.19,30.02,0,0,0,0.00
2014-1-25,26.3,19.8,11.8,24.0,16.3,8.0,91,86,80,30.27,30.12,0,0,0,0.00
2014-1-26,22.9,16.5,11.7,20.0,13.0,8.0,90,86,81,30.11,29.81,1,0,0,0.00
2014-1-27,32.3,27.2,23.1,30.0,25.0,21.0,93,91,89,29.79,29.64,2,0,0,0.00
2014-1-28,31.8,28.7,27.2,29.0,26.4,25.0,92,91,89,29.81,29.74,0,0,0,0.00
2014-1-29,31.1,27.4,24.0,27.0,24.6,22.0,92,88,81,29.95,29.75,4,0,0,0.00
2014-1-30,32.6,29.7,27.5,30.0,25.8,24.0,89,85,80,30.07,29.95,3,0,0,0.00
2014-1-31,39.7,34.7,30.1,35.0,30.9,27.0,91,86,79,30.04,29.92,4,0,0,0.20
2014-2-1,41.8,34.1,31.2,35.0,30.2,28.0,89,85,75,30.00,29.84,2,0,0,0.09
2014-2-2,33.9,32.9,32.1,32.0,29.6,29.0,92,87,85,30.25,29.96,2,0,0,0.01
2014-2-3,35.3,32.1,27.4,30.0,28.2,23.0,92,85,75,30.25,30.07,4,0,0,0.04
2014-2-4,37.3,30.1,23.1,30.0,25.3,20.0,92,83,72,30.14,30.05,4,0,0,0.07
2014-2-5,31.6,30.9,30.7,28.0,27.1,27.0,86,86,85,30.05,29.88,4,0,0,0.00
2014-3-24,42.8,39.3,37.0,40.0,36.7,35.0,94,90,82,29.94,29.82,4,1,0,0.66
2014-3-25,48.4,39.5,34.1,40.0,35.0,32.0,92,84,63,29.95,29.87,2,0,0,0.05
2014-3-26,51.4,40.9,30.5,40.0,33.6,29.0,95,77,53,30.14,29.96,4,0,0,0.01
2014-3-27,57.3,47.1,36.7,41.0,36.6,32.0,85,68,50,30.12,30.00,4,0,0,0.00
2014-3-28,56.1,45.5,38.2,44.0,38.6,35.0,88,77,60,30.30,30.09,3,0,0,0.00
2014-3-29,63.1,49.3,36.0,50.0,42.4,34.0,94,78,57,30.34,30.22,1,0,0,0.00
2014-3-30,66.1,56.3,44.2,47.0,42.8,39.0,87,62,45,30.22,30.06,2,0,0,0.00
2014-3-31,63.0,50.7,40.4,47.0,42.1,38.0,92,74,51,30.06,29.97,4,0,0,0.00
2014-4-1,63.2,51.2,39.4,49.0,42.7,37.0,93,74,52,30.04,29.95,1,0,0,0.00
2014-4-2,67.7,55.3,43.8,49.0,43.8,40.0,88,68,45,29.99,29.82,5,0,0,0.00
2014-4-3,70.8,56.6,43.0,52.0,46.1,40.0,90,70,43,29.83,29.74,2,0,0,0.06
2014-4-4,71.7,59.0,46.6,55.0,50.2,45.0,95,75,48,29.90,29.78,2,0,0,0.01
2014-4-5,60.6,53.8,47.6,52.0,48.2,44.0,90,82,72,30.07,29.89,1,0,0,0.00
2014-4-6,63.2,54.3,47.9,51.0,48.3,46.0,94,81,62,30.16,30.07,2,0,0,0.02
2014-4-7,71.9,56.9,43.1,52.0,47.3,41.0,94,73,47,30.19,30.03,4,0,0,0.00
2014-4-8,66.3,57.4,49.7,53.0,45.6,34.0,88,66,43,30.14,29.95,5,1,0,0.00
2014-4-9,54.8,47.6,41.9,39.0,34.1,31.0,78,60,44,30.24,30.14,7,2,0,0.01
2014-4-10,51.5,46.4,42.3,41.0,38.8,37.0,86,75,60,30.25,30.10,6,1,0,0.00
2014-4-11,57.4,46.9,37.4,39.0,37.0,34.0,91,70,47,30.25,30.13,5,0,0,0.00
2014-4-12,60.5,50.5,41.1,45.0,40.8,37.0,85,71,53,30.16,30.06,2,0,0,0.00
2014-4-13,61.5,52.8,46.6,48.0,43.1,40.0,93,71,48,30.10,30.01,4,0,0,0.08
2014-4-14,54.1,47.5,39.6,45.0,38.9,35.0,88,72,56,30.03,29.88,12,2,0,0.22
2014-4-15,49.2,42.3,37.5,37.0,34.5,32.0,86,74,61,30.30,30.02,7,2,0,0.01
2014-4-16,53.5,44.1,38.3,39.0,33.2,27.0,89,68,41,30.48,30.30,4,1,0,0.00
2014-4-17,56.6,44.4,30.7,35.0,29.2,25.0,88,59,34,30.48,30.06,5,0,0,0.00
2014-4-18,48.5,42.5,35.4,41.0,35.7,29.0,97,78,56,30.05,29.89,2,0,0,0.19
2014-4-19,69.4,52.4,36.1,52.0,42.8,35.0,95,73,43,30.06,29.92,5,1,0,0.01
2014-4-20,66.5,56.5,46.1,49.0,45.9,43.0,90,69,47,29.92,29.83,4,0,0,0.01
2014-4-21,63.6,53.5,43.1,51.0,46.9,41.0,92,79,62,29.85,29.75,5,0,0,0.00
2014-4-22,68.1,55.3,45.2,56.0,50.7,43.0,95,85,64,30.07,29.82,1,0,0,0.11
2014-4-23,72.4,58.8,48.6,58.0,50.9,47.0,96,77,46,30.17,30.07,3,0,0,0.00
2014-4-24,72.7,58.4,47.3,57.0,50.9,46.0,95,78,55,30.18,30.09,1,0,0,0.01
2014-4-25,53.8,53.8,53.8,50.0,50.0,50.0,86,86,86,30.09,30.09,0,0,0,0.00
2014-4-27,67.9,61.8,56.7,52.0,51.0,50.0,80,68,56,29.79,29.72,3,0,0,0.02
2014-4-28,73.0,57.9,52.7,58.0,53.1,50.0,94,84,59,29.90,29.79,2,0,0,0.02
2014-4-29,65.2,57.2,52.8,55.0,52.5,50.0,94,84,68,29.95,29.88,3,0,0,0.01
2014-4-30,71.1,56.1,47.7,53.0,48.6,45.0,95,79,42,29.89,29.86,2,0,0,0.00
2014-5-26,73.8,68.0,64.4,59.0,57.3,54.0,81,70,51,29.93,29.91,1,0,0,0.00
2014-5-27,73.4,62.4,58.5,63.0,59.4,57.0,95,90,70,29.91,29.77,3,0,0,1.07
2014-5-28,65.4,58.8,54.1,63.0,56.8,53.0,96,93,86,29.92,29.76,2,0,0,0.26
2014-5-29,54.2,49.3,45.4,53.0,47.6,44.0,95,93,88,30.13,29.91,2,0,0,0.28
2014-5-30,63.0,52.3,45.0,52.0,46.5,43.0,94,82,57,30.22,30.14,4,0,0,0.00
2014-5-31,70.0,58.6,45.6,53.0,47.6,43.0,93,69,47,30.22,30.13,2,0,0,0.00
2014-6-1,69.9,58.7,46.7,54.0,45.9,41.0,88,64,42,30.16,30.12,5,0,0,0.00
2014-6-2,68.5,58.6,48.6,52.0,46.8,43.0,83,66,50,30.17,30.08,2,0,0,0.00
2014-6-3,67.8,40.8,48.7,52.0,6.8,-99.9,91,54,55,30.09,30.00,1,-281,0,0.00
2014-6-4,74.2,62.0,51.1,57.0,51.8,48.0,91,71,45,30.00,29.84,4,0,0,0.00
2014-6-5,71.5,62.8,53.9,54.0,50.2,45.0,83,65,40,30.13,29.86,6,1,0,0.00
2014-6-6,77.3,63.4,47.7,54.0,49.6,45.0,92,64,40,30.20,30.11,4,0,0,0.00
2014-6-7,83.7,69.0,52.7,59.0,53.8,48.0,87,61,37,30.16,30.09,2,0,0,0.00
2014-6-8,90.1,74.8,57.9,64.0,59.0,55.0,90,61,34,30.21,30.14,2,0,0,0.00
2014-6-9,91.9,76.9,60.4,65.0,60.1,57.0,90,59,34,30.18,30.09,4,0,0,0.00
2014-6-10,91.6,76.9,61.4,68.0,62.7,56.0,90,64,31,30.14,30.07,2,0,0,0.00
2014-6-11,91.5,75.7,65.6,72.0,67.1,63.0,92,76,46,30.26,30.10,2,0,0,0.00
2014-6-12,78.3,69.5,61.1,65.0,58.8,49.0,89,70,52,30.30,30.21,2,0,0,0.00
2014-6-13,74.8,64.1,55.1,56.0,51.1,48.0,81,64,43,30.24,30.05,4,0,0,0.00
2014-6-14,67.4,60.3,55.0,54.0,49.7,48.0,80,69,56,30.14,30.04,4,0,0,0.00
2014-6-15,70.1,59.8,52.3,52.0,48.7,46.0,90,69,45,30.20,30.14,2,0,0,0.00
2014-6-16,72.0,60.9,48.0,53.0,48.0,45.0,90,65,43,30.20,30.07,2,0,0,0.00
2014-6-17,72.8,62.7,53.3,56.0,51.7,49.0,85,68,51,30.16,30.10,3,0,0,0.00
2014-6-18,77.1,65.1,51.1,55.0,50.7,48.0,90,62,39,30.17,30.08,4,0,0,0.00
2014-6-19,75.9,64.7,55.7,59.0,52.1,47.0,85,64,46,30.10,29.95,6,0,0,0.02
2014-6-20,66.0,58.0,51.9,53.0,49.2,47.0,90,73,56,30.06,29.97,4,1,0,0.03
2014-6-21,64.1,58.3,54.2,49.0,47.5,45.0,79,68,54,30.10,30.06,2,0,0,0.00
2014-6-22,68.2,60.1,54.0,55.0,49.0,46.0,79,67,57,30.18,30.09,2,0,0,0.00
2014-6-23,72.9,61.5,52.1,55.0,48.4,45.0,82,64,43,30.21,30.10,2,0,0,0.00
2014-6-24,73.0,62.6,52.1,53.0,48.9,44.0,84,62,47,30.13,29.99,2,0,0,0.03
2014-6-25,64.9,56.5,51.2,56.0,52.7,49.0,94,87,72,30.00,29.86,2,0,0,0.29
2014-6-26,68.1,58.6,50.7,54.0,49.6,47.0,91,73,54,30.09,29.97,4,0,0,0.00
2014-6-27,75.9,62.7,48.0,56.0,50.8,46.0,94,68,42,30.13,30.03,2,0,0,0.00
2014-6-28,81.6,67.1,55.5,60.0,55.3,52.0,91,69,39,30.04,29.85,4,0,0,0.05
2014-6-29,68.1,62.6,58.9,61.0,58.4,57.0,93,86,73,29.88,29.79,5,1,0,0.09
2014-6-30,68.1,60.0,55.4,57.0,54.3,50.0,92,82,63,30.07,29.88,4,0,0,0.03
2014-7-1,68.2,59.9,51.5,54.0,50.3,48.0,90,72,54,30.16,30.07,3,0,0,0.00
2014-7-2,72.5,62.8,53.6,57.0,51.9,49.0,89,69,49,30.27,30.13,1,0,0,0.00
2014-7-3,80.5,67.0,51.8,56.0,50.6,47.0,89,59,34,30.33,30.22,5,0,0,0.00
2014-7-4,86.5,72.4,55.3,57.0,52.9,50.0,84,54,30,30.22,29.86,6,1,0,0.00
2014-7-5,83.3,71.8,63.4,64.0,60.6,55.0,89,69,49,29.94,29.80,6,0,0,0.02
2014-7-6,85.0,74.8,65.0,66.0,61.8,59.0,84,65,46,30.00,29.90,4,0,0,0.00
2014-7-7,89.6,74.3,63.4,68.0,63.8,60.0,94,72,43,30.02,29.91,4,0,0,0.46
2014-7-8,82.3,70.2,64.1,73.0,66.5,63.0,96,89,68,29.93,29.63,2,0,0,1.34
2014-7-9,67.6,61.7,57.4,63.0,56.5,53.0,95,84,67,29.81,29.62,4,1,0,0.08
2014-7-10,61.7,57.5,53.8,58.0,54.3,52.0,94,89,82,29.91,29.78,5,1,0,0.27
2014-7-11,76.5,62.1,55.5,66.0,58.2,53.0,93,87,64,29.92,29.83,1,0,0,0.16
2014-7-12,75.4,64.9,55.5,60.0,54.2,49.0,94,71,42,29.92,29.87,4,0,0,0.02
2014-7-13,76.5,63.3,52.2,61.0,55.8,50.0,93,78,47,29.92,29.85,4,0,0,0.32
2014-7-14,79.8,68.7,59.5,63.0,59.6,56.0,89,74,55,30.06,29.89,5,0,0,0.00
2014-7-15,82.0,70.8,60.2,65.0,60.4,57.0,91,71,47,30.19,30.06,3,0,0,0.00
2014-7-16,82.3,72.0,61.6,65.0,60.9,58.0,91,70,50,30.21,30.15,2,0,0,0.00
2014-7-17,84.3,72.4,66.3,68.0,62.9,60.0,82,73,49,30.22,30.16,2,0,0,0.00
2014-7-18,86.8,73.9,61.2,67.0,61.4,58.0,92,68,41,30.19,30.09,1,0,0,0.00
2014-7-19,89.5,76.3,62.2,66.0,62.2,59.0,91,64,41,30.11,29.98,2,0,0,0.00
2014-7-20,92.7,78.5,64.0,69.0,63.6,60.0,88,62,36,29.98,29.77,2,0,0,0.00
2014-7-21,87.5,74.4,66.9,73.0,66.7,64.0,95,78,56,29.89,29.76,1,0,0,1.15
2014-7-22,83.3,73.7,65.7,69.0,62.2,56.0,96,71,43,30.03,29.86,4,0,0,0.07
2014-7-23,83.3,72.1,62.8,62.0,57.5,54.0,78,61,40,30.06,29.98,3,0,0,0.00
2014-7-24,75.5,66.0,58.3,63.0,57.9,54.0,88,76,62,30.03,29.94,2,0,0,0.00
2014-7-25,82.9,69.4,57.8,64.0,58.6,55.0,92,71,44,30.00,29.93,2,0,0,0.00
2014-7-26,84.5,73.0,60.0,65.0,60.6,57.0,92,67,45,30.01,29.89,2,0,0,0.00
2014-7-27,87.3,73.6,63.4,70.0,62.9,60.0,90,71,41,30.01,29.91,5,0,0,0.07
2014-7-28,82.3,69.2,63.8,71.0,64.6,62.0,93,86,59,30.00,29.87,4,0,0,0.24
2014-7-29,81.3,69.0,62.8,70.0,65.1,61.0,96,88,64,29.87,29.75,3,0,0,0.29
2014-7-30,81.0,69.7,63.9,71.0,66.4,63.0,97,89,64,29.88,29.75,1,0,0,0.64
2014-7-31,75.1,67.4,62.1,65.0,60.9,56.0,95,81,61,30.03,29.88,1,0,0,0.01
2014-8-1,75.8,68.3,58.2,64.0,60.1,55.0,89,76,63,30.03,29.93,4,0,0,0.00
2014-8-2,86.5,74.3,64.8,70.0,65.0,62.0,92,74,52,29.94,29.78,5,0,0,0.00
2014-8-3,87.1,73.1,64.5,68.0,64.4,61.0,94,76,45,29.94,29.83,2,0,0,0.21
2014-8-4,73.5,66.4,62.6,67.0,63.1,61.0,95,89,70,30.06,29.93,2,0,0,0.03
2014-8-5,62.8,61.4,60.3,61.0,59.9,59.0,95,94,94,30.06,30.04,0,0,0,0.00